Location: Esp�s Alto
(42.4476°N, 0.5876°E)
Time: 10:45:15
(UTC+00:00)

Cosmos 2058 Rocket - Pass Details

Date: 22 October 2019
Orbit: 611 x 639 km, 82.5° (Epoch: 13 November)

Event Time Altitude Azimuth Distance (km) Brightness Sun altitude
Rises 04:20:22 0° 357° (N) 2,904 6.5 -22.4°
Reaches altitude 10° 04:22:39 10° 3° (N) 1,998 5.8 -22.0°
Maximum altitude 04:26:57 48° 78° (ENE) 817 4.0 -21.2°
Drops below altitude 10° 04:31:14 10° 154° (SSE) 2,000 5.9 -20.4°
Sets 04:33:32 0° 160° (SSE) 2,907 6.7 -20.0°
